sat.trackr.live / text

‹ back to catalog

LPNTSAT-002 (IOD-2)

NORAD 68409 · 2026-065B

PAYLOAD ACTIVE UNKNOWN

§ Identity

Operator
Country
ESA
Launch date
2026-03-28
Launch site
RLLB
Launch vehicle
Mass (kg)
RCS (m²)

External: N2YO · Heavens-Above · Gunter

§ Orbital elements

Epoch: 2026-09-18T22:47:39.045408Z

Period
94.72 min
Inclination
97.3846°
Eccentricity
0.0014721
Mean motion
15.20254314 rev/d
Perigee alt
494.9 km
Apogee alt
515.2 km
Semi-major
6,883.2 km
B*
2.3013e-4
RAAN
140.5840°
Arg perigee
37.6239°
Mean anomaly
322.6023°
Rev number
2,648

§ Raw data

LPNTSAT-002 (IOD-2)1 68409U 26065B   26261.94975747  .00004939  00000+0  23013-3 0  99912 68409  97.3846 140.5840 0014721  37.6239 322.6023 15.20254314 26488

JSON: /api/v1/satellites/68409 · /tle

For live sub-satellite position, see the globe view (requires WebGL).

§ Visibility from observer

Set your observer location to see the next 7 days of passes ≥ 10°. The values pass through the URL so the page stays shareable.

No JS? Fill the form by hand. The geolocation button needs JavaScript.

§ Radio — SatNOGS DB

ModeDescriptionDownlinkUplink
BPSK S-band telemetry 2.222 GHz

1 transmitter · refreshed weekly from db.satnogs.org